#timestamp,LO_Frequency,Hit,StdDev 
1568646015.2,286013542.6,N
1568646035.1,286013543.2,Y
1568646036.0,286013543.2,P
1568646055.8,286046999.3,P
1568646075.7,286046998.8,N
1568646095.5,286046998.9,N
1568646115.3,286046998.5,N
1568646135.2,286046998.3,N
1568646155.0,286046999.4,N
1568646155.9,286046999.4,N
1568646175.8,286046996.6,N
1568646195.6,286046996.9,N
1568646215.4,286046996.9,N
1568646235.3,286046999.4,N
1568646255.1,286046996.8,N
1568646275.9,286046997.3,N
1568646295.7,286046997.3,N
1568646315.5,286046997.7,N
1568646335.4,286046996.6,N
1568646355.2,286046997.2,N
1568646375.0,286046996.7,N
1568646375.9,286046996.7,N
1568646395.8,286046999.1,N
1568646415.6,286046998.7,N
1568646435.5,286046998.6,N
1568646455.3,286046999.0,N
1568646475.1,286046997.0,N
1568646495.9,286046998.0,N
1568646515.7,286046997.1,N
1568646535.6,286046997.5,N
1568646555.4,286046997.5,N
1568646575.2,286046995.6,N
1568646595.1,286046996.2,N
1568646596.0,286046996.2,Y
1568646615.8,286046999.3,P
1568646635.7,286046997.1,P
1568646655.5,286046999.2,N
1568646675.3,286046997.5,N
1568646695.2,286046995.4,Y
1568646715.0,286046997.0,P
1568646715.9,286046997.0,P
1568646735.7,286046999.2,N
1568646755.6,286046996.6,Y
1568646775.4,286046998.4,P
1568646795.3,286047000.7,N
1568646815.1,286047001.0,N
1568646835.9,286047002.8,N
1568646855.7,286047001.8,N
1568646875.5,286047001.7,N
1568646895.4,286047002.2,N
1568646915.2,286047000.2,N
1568646935.0,286047000.1,N
1568646935.9,286047000.1,N
1568646955.8,286047000.0,N
1568646975.6,286047002.4,N
1568646995.5,286047001.9,N
1568647015.3,286047001.7,N
1568647035.1,286047002.1,N
1568647055.9,286047001.3,N
1568647075.7,286047002.8,N
1568647095.5,286047001.6,N
1568647115.4,286046999.7,N
1568647135.2,286047000.6,N
1568647155.1,286047002.5,N
1568647156.0,286047002.5,N
1568647175.8,286047002.1,N
1568647195.6,286047000.9,N
1568647215.5,286047000.6,N
1568647235.3,286047001.1,N
1568647255.2,286047001.2,N
1568647275.9,286047000.7,N
1568647295.7,286047000.4,N
1568647315.6,286047000.4,N
1568647335.4,286047002.8,N
1568647355.2,286047001.8,N
1568647375.1,286047003.3,Y
1568647376.0,286047003.3,P
1568647395.8,286047001.3,N
1568647415.7,286047002.2,N
1568647435.5,286047001.6,N
1568647455.3,286047001.9,N
1568647475.2,286047002.5,Y
1568647495.0,286046998.5,P
1568647495.9,286046998.5,N
1568647515.8,286046996.6,N
1568647535.6,286046998.8,N
1568647555.4,286046999.4,N
1568647575.3,286046998.3,N
1568647595.1,286047000.7,N
1568647615.9,286047000.3,N
1568647635.7,286047000.6,N
1568647655.5,286047001.1,N
1568647675.4,286046998.4,N
1568647695.2,286046999.3,N
1568647715.0,286046996.6,N
1568647716.0,286046996.6,N
1568647735.8,286046997.4,N
1568647755.6,286046997.8,N
1568647775.5,286046997.6,N
1568647795.3,286046999.1,N
1568647815.1,286047001.0,N
1568647835.9,286047000.4,N
1568647855.7,286046999.7,N
1568647875.6,286047002.8,N
1568647895.4,286047000.5,N
1568647915.2,286046998.5,N
1568647935.1,286046998.6,N
1568647936.0,286046998.6,N
1568647955.8,286046998.9,N
1568647975.6,286047000.5,N
1568647995.5,286047000.9,N
1568648015.3,286046999.7,N
1568648035.2,286047000.6,N
1568648055.9,286047000.8,N
1568648075.7,286046998.1,N
1568648095.6,286047000.4,N
1568648115.4,286047000.2,N
1568648135.2,286047000.1,N
1568648155.1,286047000.6,N
1568648156.0,286047000.6,N
1568648175.8,286046998.3,N
1568648195.7,286046999.3,N
1568648215.5,286046998.8,N
1568648235.3,286046998.7,N
1568648255.2,286046999.0,N
1568648275.0,286046998.8,N
1568648275.9,286046998.8,N
1568648295.8,286046998.3,N
1568648315.6,286046998.4,N
1568648335.4,286047001.2,N
1568648355.3,286046999.9,N
1568648375.1,286046999.8,N
1568648395.8,286046999.9,N
1568648415.7,286047000.1,N
1568648435.5,286047001.0,N
1568648455.4,286047000.8,N
1568648475.2,286047000.2,N
1568648495.0,286047000.4,N
1568648495.9,286047000.4,N
1568648515.8,286047001.2,N
1568648535.6,286046998.1,N
1568648555.5,286047001.0,N
1568648575.3,286047001.0,N
1568648595.1,286046998.7,N
1568648615.9,286046998.6,N
1568648635.7,286047001.2,N
1568648655.6,286046999.1,N
1568648675.4,286046999.4,N
1568648695.2,286046999.1,N
1568648715.1,286047000.7,N
1568648716.0,286047000.7,N
1568648735.8,286046998.6,N
1568648755.6,286047000.7,N
1568648775.5,286047000.9,N
1568648795.3,286047002.8,N
1568648815.2,286047004.2,Y
1568648835.9,286042596.7,P
1568648855.7,286047000.0,N
1568648875.6,286047000.1,N
1568648895.4,286046999.8,N
1568648915.3,286047000.8,N
1568648935.1,286047000.9,N
1568648936.0,286047000.9,N
1568648955.8,286046998.2,N
1568648975.7,286047000.6,N
1568648995.5,286046999.7,N
1568649015.3,286047003.9,N
1568649035.2,286047004.1,N
1568649055.0,286047002.9,N
1568649055.9,286047002.9,N
1568649075.8,286047002.9,N
1568649095.6,286047005.9,N
1568649115.4,286047005.5,N
1568649135.3,286047004.7,N
1568649155.1,286047004.6,N
1568649175.9,286047007.1,N
1568649195.7,286047006.1,N
1568649215.5,286047008.9,N
1568649235.4,286047008.6,N
1568649255.2,286047008.6,N
1568649275.0,286047010.7,N
1568649275.9,286047010.7,N
1568649295.8,286047008.0,N
1568649315.6,286047008.8,N
1568649335.5,286047006.3,N
1568649355.3,286047006.3,N
1568649375.1,286047009.1,N
1568649395.9,286047009.1,N
1568649415.7,286047008.7,N
1568649435.5,286047006.5,N
1568649455.4,286047006.5,N
1568649475.2,286047007.1,N
1568649495.1,286047005.0,N
1568649496.0,286047005.0,N
1568649515.8,286047007.6,N
1568649535.6,286047004.8,N
1568649555.5,286047005.2,N
1568649575.3,286047005.6,N
1568649595.2,286047005.6,N
